SBI5283 UNNT-UHMP

Flight info

Callsign SBI5283
Flight time 5h 24m
Altitude 33000
Route DIMID1K DIMID R27 RUKEP/K0819F350 R27 TURMA W189 PLR M988 ABATA T640 LURET R351 BALIL BALIL1K
Aircraft B738/M-SDE2E3FGHIRWXY/LB1

Departure

Time 2026-03-23 12:29
Airport Novosibirsk Tolmachevo Airport (UNNT)

Arrival

Time 2026-03-23 17:54
Airport Pevek Airport (UHMP)
Time Latitude Longitude Altitude Speed Heading
2026-03-23 11:56 55.01036 82.66753 372 ft 0 kts 170°
2026-03-23 12:19 55.01037 82.66752 372 ft 1 kts 170°
2026-03-23 12:19 55.01053 82.66747 372 ft 3 kts 165°
2026-03-23 12:20 55.01072 82.66736 372 ft 3 kts 153°
2026-03-23 12:20 55.01088 82.66718 372 ft 3 kts 123°
2026-03-23 12:20 55.01093 82.66696 372 ft 2 kts 79°
2026-03-23 12:20 55.01093 82.66692 372 ft 2 kts 77°
2026-03-23 12:24 55.01093 82.66696 372 ft 2 kts 77°
2026-03-23 12:24 55.01097 82.66756 372 ft 6 kts 85°
2026-03-23 12:25 55.01088 82.66867 372 ft 6 kts 115°
2026-03-23 12:25 55.01081 82.66941 372 ft 9 kts 85°
2026-03-23 12:25 55.01094 82.67107 372 ft 10 kts 82°
2026-03-23 12:25 55.01097 82.67231 372 ft 10 kts 89°
2026-03-23 12:26 55.01104 82.67350 372 ft 10 kts 79°
2026-03-23 12:26 55.01126 82.67458 372 ft 10 kts 47°
2026-03-23 12:26 55.01180 82.67521 372 ft 9 kts 32°
2026-03-23 12:27 55.01269 82.67616 372 ft 9 kts 31°
2026-03-23 12:27 55.01322 82.67669 372 ft 9 kts 31°
2026-03-23 12:27 55.01372 82.67721 371 ft 8 kts 29°
2026-03-23 12:27 55.01441 82.67774 371 ft 8 kts 18°
2026-03-23 12:28 55.01451 82.67778 370 ft 0 kts 12°
2026-03-23 12:28 55.01454 82.67779 370 ft 3 kts 10°
2026-03-23 12:28 55.01492 82.67755 370 ft 8 kts 300°
2026-03-23 12:28 55.01471 82.67533 369 ft 49 kts 258°
2026-03-23 12:29 55.01371 82.66539 374 ft 116 kts 261°
2026-03-23 12:29 55.01200 82.64818 402 ft 169 kts 259°
2026-03-23 12:29 55.01016 82.62706 1008 ft 179 kts 258°
2026-03-23 12:29 55.00838 82.60669 2288 ft 155 kts 257°
2026-03-23 12:30 55.00669 82.58771 3021 ft 165 kts 260°
2026-03-23 12:30 55.00487 82.56733 3395 ft 175 kts 261°
2026-03-23 12:30 55.00299 82.54595 3814 ft 181 kts 262°
2026-03-23 12:30 55.00464 82.52317 3964 ft 206 kts 294°
2026-03-23 12:31 55.01380 82.50331 4360 ft 220 kts 309°
2026-03-23 12:31 55.02516 82.48460 4760 ft 234 kts 311°
2026-03-23 12:31 55.03761 82.46477 5200 ft 246 kts 311°
2026-03-23 12:31 55.05031 82.44467 5840 ft 247 kts 311°
2026-03-23 12:32 55.06303 82.42446 5970 ft 247 kts 310°
2026-03-23 12:32 55.07565 82.40433 5974 ft 246 kts 310°
2026-03-23 12:32 55.08827 82.38409 5969 ft 247 kts 310°
2026-03-23 12:32 55.10073 82.36403 5983 ft 247 kts 310°
2026-03-23 12:33 55.11324 82.34388 6174 ft 241 kts 310°
2026-03-23 12:33 55.12559 82.32391 6590 ft 244 kts 310°
2026-03-23 12:33 55.13819 82.30346 6979 ft 250 kts 310°
2026-03-23 12:33 55.15094 82.28279 7355 ft 250 kts 311°
2026-03-23 12:34 55.16369 82.26212 7740 ft 250 kts 311°
2026-03-23 12:34 55.17645 82.24138 8141 ft 250 kts 311°
2026-03-23 12:34 55.18924 82.22058 8540 ft 251 kts 312°
2026-03-23 12:34 55.20206 82.19969 8939 ft 253 kts 312°
2026-03-23 12:35 55.21624 82.18102 9318 ft 263 kts 331°
2026-03-23 12:35 55.23394 82.17284 9761 ft 271 kts 346°
2026-03-23 12:35 55.25288 82.16934 10144 ft 276 kts 349°
2026-03-23 12:35 55.27213 82.16673 10526 ft 279 kts 349°
2026-03-23 12:36 55.29186 82.16400 10758 ft 293 kts 349°
2026-03-23 12:36 55.31278 82.16083 10917 ft 311 kts 349°
2026-03-23 12:36 55.33492 82.15729 11065 ft 327 kts 349°
2026-03-23 12:36 55.35789 82.15362 11434 ft 336 kts 352°
2026-03-23 12:37 55.38151 82.15801 11940 ft 351 kts 14°
2026-03-23 12:37 55.40276 82.17902 12544 ft 363 kts 37°
2026-03-23 12:37 55.41844 82.21444 13100 ft 375 kts 62°
2026-03-23 12:37 55.42622 82.25861 13637 ft 382 kts 76°
2026-03-23 12:38 55.43169 82.30475 14087 ft 387 kts 76°
2026-03-23 12:38 55.43726 82.35135 14541 ft 390 kts 76°
2026-03-23 12:38 55.44308 82.39819 15014 ft 393 kts 75°
2026-03-23 12:38 55.44913 82.44536 15468 ft 397 kts 75°
2026-03-23 12:39 55.45529 82.49292 15914 ft 400 kts 75°
2026-03-23 12:39 55.46139 82.54033 16361 ft 403 kts 75°
2026-03-23 12:39 55.46808 82.58849 16805 ft 406 kts 68°
2026-03-23 12:39 55.48164 82.63147 17201 ft 400 kts 44°
2026-03-23 12:40 55.50244 82.66286 17677 ft 391 kts 25°
2026-03-23 12:40 55.52700 82.68228 18138 ft 384 kts 10°
2026-03-23 12:40 55.55313 82.68892 18498 ft 378 kts 356°
2026-03-23 12:40 55.57939 82.68995 18929 ft 379 kts 354°
2026-03-23 12:41 55.60583 82.69023 19341 ft 380 kts 354°
2026-03-23 12:41 55.63201 82.69041 19727 ft 383 kts 354°
2026-03-23 12:41 55.65870 82.69074 20111 ft 385 kts 354°
2026-03-23 12:41 55.68559 82.69126 20488 ft 388 kts 354°
2026-03-23 12:42 55.71267 82.69192 20869 ft 390 kts 354°
2026-03-23 12:42 55.73990 82.69269 21247 ft 393 kts 354°
2026-03-23 12:42 55.76735 82.69351 21577 ft 396 kts 354°
2026-03-23 12:42 55.79502 82.69435 21926 ft 399 kts 354°
2026-03-23 12:43 55.82281 82.69522 22294 ft 401 kts 354°
2026-03-23 12:43 55.85077 82.69610 22701 ft 402 kts 354°
2026-03-23 12:43 55.87882 82.69698 23061 ft 404 kts 354°
2026-03-23 12:43 55.90665 82.69785 23373 ft 407 kts 354°
2026-03-23 12:44 55.93506 82.69873 23649 ft 409 kts 354°
2026-03-23 12:44 55.96358 82.69963 23936 ft 411 kts 354°
2026-03-23 12:44 55.99227 82.70053 24206 ft 413 kts 353°
2026-03-23 12:44 56.02103 82.70143 24474 ft 415 kts 353°
2026-03-23 12:45 56.05005 82.70437 24716 ft 426 kts
2026-03-23 12:45 56.07834 82.72332 24924 ft 446 kts 25°
2026-03-23 12:45 56.10283 82.75879 25221 ft 459 kts 40°
2026-03-23 12:45 56.12481 82.79948 25494 ft 462 kts 41°
2026-03-23 12:46 56.14687 82.84160 25679 ft 466 kts 41°
2026-03-23 12:46 56.16908 82.88412 25896 ft 468 kts 41°
2026-03-23 12:46 56.19150 82.92667 26131 ft 470 kts 41°
2026-03-23 12:46 56.21411 82.96913 26368 ft 471 kts 41°
2026-03-23 12:47 56.23690 83.01169 26582 ft 473 kts 40°
2026-03-23 12:47 56.25982 83.05436 26792 ft 475 kts 40°
2026-03-23 12:47 56.28285 83.09728 27006 ft 477 kts 40°
2026-03-23 12:47 56.30590 83.14035 27206 ft 480 kts 41°
2026-03-23 12:48 56.32911 83.18381 27385 ft 482 kts 41°
2026-03-23 12:48 56.35208 83.22693 27575 ft 484 kts 41°
2026-03-23 12:48 56.37542 83.27080 27784 ft 486 kts 41°
2026-03-23 12:48 56.39880 83.31481 27986 ft 487 kts 41°
2026-03-23 12:49 56.42234 83.35910 28161 ft 489 kts 41°
2026-03-23 12:49 56.44593 83.40353 28346 ft 491 kts 41°
2026-03-23 12:49 56.46960 83.44822 28510 ft 493 kts 41°
2026-03-23 12:49 56.49334 83.49313 28691 ft 495 kts 41°
2026-03-23 12:50 56.51714 83.53824 28864 ft 496 kts 41°
2026-03-23 12:50 56.54071 83.58302 29034 ft 498 kts 41°
2026-03-23 12:50 56.56462 83.62855 29207 ft 500 kts 41°
2026-03-23 12:50 56.58859 83.67429 29365 ft 501 kts 41°
2026-03-23 12:51 56.61265 83.72029 29578 ft 502 kts 41°
2026-03-23 12:51 56.63662 83.76621 29832 ft 501 kts 41°
2026-03-23 12:51 56.66058 83.81222 30047 ft 501 kts 41°
2026-03-23 12:51 56.68451 83.85826 30273 ft 500 kts 41°
2026-03-23 12:52 56.70833 83.90417 30563 ft 498 kts 41°
2026-03-23 12:52 56.73198 83.94988 30874 ft 495 kts 41°
2026-03-23 12:52 56.75520 83.99480 31129 ft 493 kts 41°
2026-03-23 12:52 56.77872 84.04037 31318 ft 493 kts 41°
2026-03-23 12:53 56.80220 84.08594 31494 ft 493 kts 41°
2026-03-23 12:53 56.82563 84.13150 31720 ft 492 kts 41°
2026-03-23 12:53 56.84900 84.17708 31951 ft 491 kts 41°
2026-03-23 12:53 56.87230 84.22259 32143 ft 490 kts 41°
2026-03-23 12:54 56.89560 84.26817 32322 ft 490 kts 41°
2026-03-23 12:54 56.91880 84.31368 32523 ft 489 kts 41°
2026-03-23 12:54 56.94200 84.35926 32731 ft 488 kts 41°
2026-03-23 12:54 56.96486 84.40423 32730 ft 491 kts 41°
2026-03-23 12:55 57.01125 84.49585 32745 ft 489 kts 42°
2026-03-23 12:55 57.05721 84.58699 32730 ft 484 kts 42°
2026-03-23 12:56 57.10276 84.67759 32726 ft 481 kts 42°
2026-03-23 12:56 57.15060 84.76213 32728 ft 472 kts 29°
2026-03-23 12:57 57.20482 84.83003 32724 ft 477 kts 27°
2026-03-23 12:57 57.26025 84.89825 32719 ft 480 kts 27°
2026-03-23 12:58 57.31568 84.96771 32714 ft 483 kts 28°
2026-03-23 12:58 57.37099 85.03799 32711 ft 482 kts 28°
2026-03-23 12:59 57.42577 85.10805 32695 ft 480 kts 28°
2026-03-23 12:59 57.48057 85.17837 32695 ft 478 kts 28°
2026-03-23 13:00 57.53516 85.24862 32684 ft 476 kts 28°
2026-03-23 13:01 57.61619 85.35332 32705 ft 474 kts 28°
2026-03-23 13:01 57.67025 85.42350 32690 ft 473 kts 29°
2026-03-23 13:02 57.72411 85.49368 32685 ft 472 kts 29°
2026-03-23 13:02 57.77787 85.56400 32681 ft 471 kts 29°
2026-03-23 13:03 57.83130 85.63413 32683 ft 472 kts 29°
2026-03-23 13:03 57.88515 85.70507 32680 ft 474 kts 29°
2026-03-23 13:04 57.93908 85.77639 32683 ft 475 kts 29°
2026-03-23 13:04 57.99312 85.84814 32673 ft 476 kts 29°
2026-03-23 13:05 58.04721 85.92023 32673 ft 476 kts 30°
2026-03-23 13:05 58.10095 85.99213 32659 ft 477 kts 30°
2026-03-23 13:06 58.15506 86.06479 32692 ft 477 kts 30°
2026-03-23 13:06 58.20920 86.13776 32663 ft 477 kts 30°
2026-03-23 13:07 58.26326 86.21091 32653 ft 477 kts 30°
2026-03-23 13:07 58.31680 86.28365 32648 ft 476 kts 30°
2026-03-23 13:08 58.37068 86.35710 32659 ft 476 kts 30°
2026-03-23 13:08 58.42443 86.43066 32646 ft 475 kts 30°
2026-03-23 13:09 58.47814 86.50446 32650 ft 475 kts 30°
2026-03-23 13:09 58.53176 86.57841 32646 ft 475 kts 30°
2026-03-23 13:10 58.58492 86.65201 32639 ft 475 kts 30°
2026-03-23 13:10 58.63843 86.72614 32635 ft 474 kts 29°
2026-03-23 13:11 58.69505 86.78850 32631 ft 467 kts 21°
2026-03-23 13:11 58.75256 86.84482 32632 ft 468 kts 21°
2026-03-23 13:12 58.81035 86.90249 32628 ft 468 kts 22°
2026-03-23 13:12 58.86802 86.96144 32616 ft 469 kts 22°
2026-03-23 13:13 58.92557 87.02082 32612 ft 469 kts 22°
2026-03-23 13:13 58.98272 87.07996 32617 ft 469 kts 22°
2026-03-23 13:14 59.04008 87.13949 32609 ft 470 kts 22°
2026-03-23 13:14 59.09771 87.19952 32611 ft 470 kts 22°
2026-03-23 13:15 59.15537 87.25934 32602 ft 470 kts 22°
2026-03-23 13:15 59.21311 87.31906 32604 ft 469 kts 22°
2026-03-23 13:16 59.27041 87.37857 32594 ft 469 kts 22°
2026-03-23 13:16 59.32798 87.43866 32596 ft 469 kts 22°
2026-03-23 13:17 59.38551 87.49899 32589 ft 469 kts 22°
2026-03-23 13:17 59.44303 87.55953 32587 ft 469 kts 23°
2026-03-23 13:18 59.50010 87.61984 32582 ft 469 kts 23°
2026-03-23 13:18 59.55749 87.68071 32586 ft 468 kts 23°
2026-03-23 13:19 59.61487 87.74182 32577 ft 469 kts 23°
2026-03-23 13:19 59.67227 87.80318 32581 ft 469 kts 23°
2026-03-23 13:20 59.72922 87.86431 32566 ft 469 kts 23°
2026-03-23 13:20 59.78654 87.92608 32573 ft 469 kts 23°
2026-03-23 13:21 59.84378 87.98799 32564 ft 469 kts 23°
2026-03-23 13:21 59.90105 88.05019 32578 ft 469 kts 23°
2026-03-23 13:22 59.95839 88.11271 32567 ft 470 kts 24°
2026-03-23 13:22 60.01530 88.17501 32559 ft 470 kts 24°
2026-03-23 13:23 60.07260 88.23799 32555 ft 470 kts 24°
2026-03-23 13:23 60.12990 88.30121 32553 ft 470 kts 24°
2026-03-23 13:24 60.18718 88.36468 32571 ft 471 kts 24°
2026-03-23 13:24 60.24410 88.42798 32563 ft 471 kts 24°
2026-03-23 13:25 60.30142 88.49200 32538 ft 471 kts 24°
2026-03-23 13:25 60.35866 88.55619 32539 ft 471 kts 24°
2026-03-23 13:26 60.41587 88.62061 32535 ft 470 kts 24°
2026-03-23 13:26 60.47268 88.68484 32570 ft 471 kts 24°
2026-03-23 13:27 60.52982 88.74969 32540 ft 471 kts 24°
2026-03-23 13:27 60.58701 88.81487 32531 ft 471 kts 24°
2026-03-23 13:28 60.64406 88.88017 32525 ft 470 kts 24°
2026-03-23 13:28 60.70105 88.94565 32534 ft 470 kts 24°
2026-03-23 13:29 60.75758 89.01088 32561 ft 470 kts 25°
2026-03-23 13:29 60.81451 89.07682 32533 ft 470 kts 25°
2026-03-23 13:30 60.87134 89.14295 32519 ft 470 kts 25°
2026-03-23 13:30 60.92813 89.20929 32526 ft 469 kts 25°
2026-03-23 13:31 60.98482 89.27579 32522 ft 469 kts 25°
2026-03-23 13:31 61.04107 89.34205 32527 ft 469 kts 25°
2026-03-23 13:32 61.09774 89.40908 32524 ft 469 kts 25°
2026-03-23 13:32 61.15435 89.47631 32516 ft 469 kts 25°
2026-03-23 13:33 61.21087 89.54370 32515 ft 469 kts 25°
2026-03-23 13:33 61.26701 89.61074 32510 ft 469 kts 25°
2026-03-23 13:34 61.32349 89.67843 32513 ft 468 kts 25°
2026-03-23 13:34 61.37998 89.74644 32507 ft 470 kts 26°
2026-03-23 13:35 61.43653 89.81485 32501 ft 470 kts 26°
2026-03-23 13:35 61.49266 89.88303 32502 ft 470 kts 26°
2026-03-23 13:36 61.54912 89.95187 32493 ft 470 kts 26°
2026-03-23 13:36 61.60208 90.03276 32506 ft 476 kts 42°
2026-03-23 13:37 61.64276 90.14343 32536 ft 481 kts 54°
2026-03-23 13:37 61.67933 90.26144 32499 ft 481 kts 54°
2026-03-23 13:38 61.71587 90.37838 32492 ft 481 kts 54°
2026-03-23 13:38 61.75298 90.49570 32490 ft 480 kts 54°
2026-03-23 13:39 61.79003 90.61306 32504 ft 480 kts 54°
2026-03-23 13:39 61.82690 90.73057 32492 ft 480 kts 54°
2026-03-23 13:40 61.86347 90.84757 32494 ft 479 kts 54°
2026-03-23 13:40 61.90023 90.96540 32498 ft 479 kts 54°
2026-03-23 13:41 61.93689 91.08346 32524 ft 479 kts 54°
2026-03-23 13:41 61.97345 91.20188 32506 ft 479 kts 54°
2026-03-23 13:42 62.00989 91.32054 32497 ft 479 kts 54°
2026-03-23 13:42 62.04595 91.43859 32497 ft 478 kts 54°
2026-03-23 13:43 62.08211 91.55759 32507 ft 478 kts 55°
2026-03-23 13:43 62.11813 91.67674 32501 ft 477 kts 55°
2026-03-23 13:44 62.15399 91.79599 32515 ft 477 kts 55°
2026-03-23 13:44 62.18949 91.91464 32504 ft 477 kts 55°
2026-03-23 13:45 62.22513 92.03436 32516 ft 476 kts 55°
2026-03-23 13:45 62.26064 92.15431 32512 ft 476 kts 56°
2026-03-23 13:46 62.29604 92.27452 32507 ft 476 kts 56°
2026-03-23 13:46 62.33106 92.39406 32521 ft 476 kts 56°
2026-03-23 13:47 62.36627 92.51490 32511 ft 476 kts 56°
2026-03-23 13:47 62.40137 92.63601 32520 ft 476 kts 56°
2026-03-23 13:48 62.43637 92.75740 32522 ft 477 kts 56°
2026-03-23 13:48 62.47106 92.87835 32518 ft 477 kts 56°
2026-03-23 13:49 62.50587 93.00040 32547 ft 477 kts 57°
2026-03-23 13:49 62.54068 93.12308 32529 ft 478 kts 57°
2026-03-23 13:50 62.57533 93.24591 32525 ft 478 kts 57°
2026-03-23 13:50 62.60965 93.36821 32529 ft 477 kts 57°
2026-03-23 13:51 62.66125 93.55334 32532 ft 477 kts 57°
2026-03-23 13:51 62.69549 93.67703 32540 ft 477 kts 57°
2026-03-23 13:52 62.72943 93.80030 32525 ft 477 kts 57°
2026-03-23 13:52 62.76342 93.92440 32533 ft 477 kts 58°
2026-03-23 13:53 62.78045 93.98683 32648 ft 479 kts 58°
2026-03-23 13:53 62.79740 94.04929 32908 ft 477 kts 58°
2026-03-23 13:53 62.81422 94.11165 33192 ft 475 kts 58°
2026-03-23 13:53 62.83093 94.17390 33365 ft 475 kts 58°
2026-03-23 13:54 62.84764 94.23632 33485 ft 476 kts 58°
2026-03-23 13:54 62.86436 94.29895 33631 ft 477 kts 58°
2026-03-23 13:54 62.88084 94.36082 33799 ft 476 kts 58°
2026-03-23 13:54 62.89747 94.42342 33954 ft 475 kts 58°
2026-03-23 13:55 62.91408 94.48612 34077 ft 476 kts 58°
2026-03-23 13:55 62.93068 94.54893 34188 ft 476 kts 58°
2026-03-23 13:55 62.94729 94.61193 34291 ft 477 kts 58°
2026-03-23 13:55 62.96387 94.67505 34446 ft 476 kts 58°
2026-03-23 13:56 62.99697 94.80153 34528 ft 479 kts 58°
2026-03-23 13:56 63.02978 94.92762 34527 ft 476 kts 58°
2026-03-23 13:57 63.06251 95.05418 34539 ft 474 kts 58°
2026-03-23 13:57 63.09498 95.18038 34538 ft 472 kts 58°
2026-03-23 13:58 63.12721 95.30638 34541 ft 470 kts 59°
2026-03-23 13:58 63.15904 95.43154 34536 ft 470 kts 59°
2026-03-23 13:59 63.19100 95.55787 34541 ft 470 kts 59°
2026-03-23 13:59 63.22288 95.68467 34541 ft 472 kts 59°
2026-03-23 14:00 63.25475 95.81214 34542 ft 473 kts 59°
2026-03-23 14:00 63.28662 95.94034 34546 ft 475 kts 59°
2026-03-23 14:01 63.31829 96.06851 34560 ft 477 kts 59°
2026-03-23 14:01 63.35016 96.19823 34546 ft 478 kts 60°
2026-03-23 14:02 63.38196 96.32845 34540 ft 479 kts 60°
2026-03-23 14:02 63.41366 96.45903 34542 ft 478 kts 60°
2026-03-23 14:03 63.44521 96.58977 34539 ft 478 kts 60°
2026-03-23 14:03 63.47634 96.71954 34545 ft 476 kts 60°
2026-03-23 14:04 63.50751 96.85028 34547 ft 476 kts 60°
2026-03-23 14:04 63.53851 96.98104 34547 ft 474 kts 60°
2026-03-23 14:05 63.56929 97.11168 34577 ft 474 kts 60°
2026-03-23 14:05 63.59975 97.24176 34563 ft 473 kts 60°
2026-03-23 14:06 63.63024 97.37271 34545 ft 473 kts 61°
2026-03-23 14:06 63.66057 97.50381 34556 ft 472 kts 61°
2026-03-23 14:07 63.69077 97.63515 34554 ft 472 kts 61°
2026-03-23 14:07 63.72064 97.76581 34563 ft 472 kts 61°
2026-03-23 14:08 63.75060 97.89769 34560 ft 472 kts 61°
2026-03-23 14:08 63.78047 98.02997 34564 ft 473 kts 61°
2026-03-23 14:09 63.81025 98.16268 34565 ft 473 kts 62°
2026-03-23 14:09 63.83997 98.29594 34567 ft 475 kts 62°
2026-03-23 14:10 63.86942 98.42882 34571 ft 475 kts 62°
2026-03-23 14:10 63.89900 98.56313 34570 ft 476 kts 62°
2026-03-23 14:11 63.92843 98.69762 34563 ft 475 kts 62°
2026-03-23 14:11 63.95771 98.83226 34578 ft 475 kts 62°
2026-03-23 14:12 63.98684 98.96707 34583 ft 474 kts 62°
2026-03-23 14:12 64.01560 99.10103 34585 ft 473 kts 62°
2026-03-23 14:13 64.04439 99.23596 34594 ft 473 kts 62°
2026-03-23 14:13 64.07307 99.37126 34604 ft 473 kts 62°
2026-03-23 14:14 64.10163 99.50672 34585 ft 473 kts 62°
2026-03-23 14:14 64.12987 99.64125 34602 ft 472 kts 62°
2026-03-23 14:15 64.15829 99.77680 34595 ft 472 kts 63°
2026-03-23 14:15 64.18654 99.91244 34598 ft 471 kts 63°
2026-03-23 14:16 64.21465 100.04835 34610 ft 471 kts 63°
2026-03-23 14:16 64.24243 100.18359 34608 ft 471 kts 63°
2026-03-23 14:17 64.27031 100.32009 34607 ft 472 kts 63°
2026-03-23 14:17 64.29830 100.45674 34634 ft 472 kts 61°
2026-03-23 14:18 64.32938 100.58990 34621 ft 471 kts 58°
2026-03-23 14:18 64.36138 100.72074 34617 ft 472 kts 58°
2026-03-23 14:19 64.39333 100.85311 34611 ft 472 kts 59°
2026-03-23 14:19 64.42490 100.98625 34616 ft 472 kts 59°
2026-03-23 14:20 64.45621 101.11978 34619 ft 472 kts 59°
2026-03-23 14:20 64.48737 101.25358 34620 ft 472 kts 59°
2026-03-23 14:21 64.51819 101.38670 34623 ft 471 kts 59°
2026-03-23 14:21 64.54911 101.52101 34652 ft 471 kts 59°
2026-03-23 14:22 64.57993 101.65574 34640 ft 471 kts 60°
2026-03-23 14:22 64.61061 101.79069 34631 ft 471 kts 60°
2026-03-23 14:23 64.64112 101.92573 34634 ft 471 kts 60°
2026-03-23 14:23 64.67128 102.06007 34634 ft 470 kts 60°
2026-03-23 14:24 64.70152 102.19562 34638 ft 470 kts 60°
2026-03-23 14:24 64.73157 102.33116 34638 ft 469 kts 60°
2026-03-23 14:25 64.76149 102.46701 34647 ft 469 kts 60°
2026-03-23 14:25 64.79110 102.60223 34640 ft 469 kts 60°
2026-03-23 14:26 64.82075 102.73856 34643 ft 469 kts 61°
2026-03-23 14:27 64.86500 102.94365 34653 ft 469 kts 61°
2026-03-23 14:27 64.89435 103.08079 34655 ft 469 kts 61°
2026-03-23 14:28 64.92341 103.21748 34650 ft 470 kts 61°
2026-03-23 14:28 64.95257 103.35551 34663 ft 470 kts 61°
2026-03-23 14:29 64.98160 103.49382 34660 ft 470 kts 62°
2026-03-23 14:29 65.01055 103.63265 34678 ft 471 kts 62°
2026-03-23 14:30 65.03942 103.77203 34672 ft 472 kts 62°
2026-03-23 14:30 65.06798 103.91089 34663 ft 472 kts 62°
2026-03-23 14:31 65.09661 104.05099 34675 ft 472 kts 62°
2026-03-23 14:31 65.12511 104.19134 34664 ft 472 kts 62°
2026-03-23 14:32 65.15347 104.33204 34674 ft 472 kts 62°
2026-03-23 14:32 65.18150 104.47198 34680 ft 472 kts 62°
2026-03-23 14:33 65.20957 104.61310 34675 ft 471 kts 62°
2026-03-23 14:33 65.23752 104.75457 34678 ft 472 kts 62°
2026-03-23 14:34 65.26535 104.89640 34676 ft 472 kts 63°
2026-03-23 14:34 65.29304 105.03852 34682 ft 472 kts 63°
2026-03-23 14:35 65.32041 105.17997 34678 ft 472 kts 63°
2026-03-23 14:35 65.34781 105.32257 34684 ft 472 kts 63°
2026-03-23 14:36 65.37510 105.46557 34680 ft 472 kts 63°
2026-03-23 14:36 65.40206 105.60791 34687 ft 472 kts 63°
2026-03-23 14:37 65.42908 105.75152 34690 ft 472 kts 63°
2026-03-23 14:37 65.45602 105.89569 34690 ft 473 kts 63°
2026-03-23 14:38 65.48282 106.04018 34687 ft 473 kts 64°
2026-03-23 14:38 65.50951 106.18515 34683 ft 473 kts 64°
2026-03-23 14:39 65.53589 106.32942 34683 ft 473 kts 64°
2026-03-23 14:39 65.56230 106.47495 34684 ft 474 kts 64°
2026-03-23 14:40 65.58860 106.62092 34683 ft 474 kts 64°
2026-03-23 14:40 65.61475 106.76714 34685 ft 473 kts 64°
2026-03-23 14:41 65.64060 106.91261 34710 ft 474 kts 64°
2026-03-23 14:41 65.66639 107.05957 34694 ft 474 kts 65°
2026-03-23 14:42 65.69146 107.20741 34679 ft 474 kts 65°
2026-03-23 14:42 65.71627 107.35565 34678 ft 474 kts 65°
2026-03-23 14:43 65.74081 107.50298 34676 ft 473 kts 66°
2026-03-23 14:43 65.76541 107.65152 34685 ft 473 kts 66°
2026-03-23 14:44 65.78987 107.80015 34681 ft 473 kts 66°
2026-03-23 14:44 65.81416 107.94895 34687 ft 473 kts 66°
2026-03-23 14:45 65.83816 108.09719 34702 ft 473 kts 66°
2026-03-23 14:45 65.86221 108.24687 34687 ft 473 kts 66°
2026-03-23 14:46 65.88612 108.39692 34677 ft 474 kts 66°
2026-03-23 14:46 65.90990 108.54730 34677 ft 474 kts 67°
2026-03-23 14:47 65.94526 108.77326 34677 ft 474 kts 67°
2026-03-23 14:47 65.96851 108.92326 34688 ft 474 kts 67°
2026-03-23 14:48 65.99176 109.07461 34692 ft 474 kts 67°
2026-03-23 14:48 66.01486 109.22615 34689 ft 474 kts 68°
2026-03-23 14:49 66.03782 109.37800 34706 ft 474 kts 68°
2026-03-23 14:49 66.06049 109.52922 34690 ft 474 kts 68°
2026-03-23 14:50 66.08314 109.68161 34696 ft 473 kts 68°
2026-03-23 14:50 66.10562 109.83411 34688 ft 473 kts 68°
2026-03-23 14:51 66.12794 109.98679 34692 ft 473 kts 68°
2026-03-23 14:51 66.14997 110.13879 34684 ft 473 kts 69°
2026-03-23 14:52 66.17196 110.29185 34687 ft 472 kts 69°
2026-03-23 14:52 66.19378 110.44499 34680 ft 472 kts 69°
2026-03-23 14:53 66.21544 110.59840 34687 ft 472 kts 69°
2026-03-23 14:53 66.23696 110.75206 34685 ft 472 kts 69°
2026-03-23 14:54 66.25819 110.90504 34679 ft 472 kts 69°
2026-03-23 14:54 66.27941 111.05931 34680 ft 472 kts 69°
2026-03-23 14:55 66.30048 111.21382 34672 ft 472 kts 70°
2026-03-23 14:55 66.32142 111.36863 34682 ft 472 kts 70°
2026-03-23 14:56 66.34213 111.52366 34665 ft 472 kts 70°
2026-03-23 14:56 66.36248 111.67776 34670 ft 472 kts 70°
2026-03-23 14:57 66.38287 111.83321 34679 ft 472 kts 70°
2026-03-23 14:57 66.40311 111.98885 34669 ft 472 kts 70°
2026-03-23 14:58 66.42960 112.13775 34676 ft 468 kts 60°
2026-03-23 14:58 66.46044 112.27987 34664 ft 468 kts 59°
2026-03-23 14:59 66.49141 112.42328 34664 ft 468 kts 60°
2026-03-23 14:59 66.52181 112.56758 34651 ft 468 kts 60°
2026-03-23 15:00 66.54679 112.68795 34651 ft 468 kts 60°
2026-03-23 15:00 66.57667 112.83320 34663 ft 468 kts 61°
2026-03-23 15:01 66.61127 113.00262 34651 ft 469 kts 61°
2026-03-23 15:01 66.64093 113.14885 34648 ft 469 kts 61°
2026-03-23 15:02 66.66549 113.27069 34649 ft 469 kts 61°
2026-03-23 15:02 66.69491 113.41759 34638 ft 469 kts 62°
2026-03-23 15:03 66.72892 113.58868 34634 ft 469 kts 62°
2026-03-23 15:03 66.75331 113.71229 34636 ft 469 kts 62°
2026-03-23 15:04 66.78212 113.85918 34606 ft 469 kts 62°
2026-03-23 15:04 66.81098 114.00746 34628 ft 469 kts 62°
2026-03-23 15:05 66.83969 114.15600 34619 ft 469 kts 62°
2026-03-23 15:05 66.86828 114.30498 34610 ft 469 kts 63°
2026-03-23 15:06 66.89652 114.45317 34610 ft 469 kts 63°
2026-03-23 15:06 66.92484 114.60292 34604 ft 469 kts 63°
2026-03-23 15:07 66.95300 114.75287 34614 ft 469 kts 63°
2026-03-23 15:07 66.98108 114.90351 34602 ft 470 kts 63°
2026-03-23 15:08 67.00899 115.05438 34591 ft 470 kts 63°
2026-03-23 15:08 67.03658 115.20464 34589 ft 469 kts 64°
2026-03-23 15:09 67.06420 115.35612 34579 ft 469 kts 64°
2026-03-23 15:09 67.09165 115.50789 34583 ft 469 kts 64°
2026-03-23 15:10 67.11878 115.65895 34577 ft 469 kts 64°
2026-03-23 15:10 67.14594 115.81132 34580 ft 470 kts 64°
2026-03-23 15:11 67.17300 115.96434 34579 ft 469 kts 65°
2026-03-23 15:11 67.19991 116.11763 34571 ft 469 kts 65°
2026-03-23 15:12 67.22663 116.27109 34578 ft 469 kts 65°
2026-03-23 15:12 67.25307 116.42405 34569 ft 469 kts 65°
2026-03-23 15:13 67.27949 116.57812 34573 ft 469 kts 65°
2026-03-23 15:13 67.30578 116.73257 34574 ft 469 kts 65°
2026-03-23 15:14 67.33189 116.88723 34563 ft 469 kts 66°
2026-03-23 15:14 67.35773 117.04146 34563 ft 469 kts 66°
2026-03-23 15:15 67.38356 117.19694 34558 ft 469 kts 66°
2026-03-23 15:15 67.40926 117.35280 34558 ft 469 kts 66°
2026-03-23 15:16 67.43481 117.50905 34554 ft 469 kts 66°
2026-03-23 15:16 67.46020 117.66554 34559 ft 469 kts 66°
2026-03-23 15:17 67.48529 117.82140 34582 ft 469 kts 67°
2026-03-23 15:17 67.51042 117.97884 34571 ft 470 kts 67°
2026-03-23 15:18 67.53540 118.13666 34549 ft 470 kts 67°
2026-03-23 15:18 67.56023 118.29482 34551 ft 470 kts 68°
2026-03-23 15:19 67.58476 118.45230 34554 ft 470 kts 68°
2026-03-23 15:19 67.60930 118.61113 34550 ft 470 kts 68°
2026-03-23 15:20 67.63378 118.77007 34556 ft 470 kts 66°
2026-03-23 15:20 67.66308 118.92324 34566 ft 469 kts 61°
2026-03-23 15:21 67.69426 119.07292 34553 ft 470 kts 61°
2026-03-23 15:21 67.72533 119.22423 34528 ft 470 kts 61°
2026-03-23 15:22 67.75585 119.37649 34549 ft 469 kts 62°
2026-03-23 15:22 67.78606 119.52946 34553 ft 470 kts 62°
2026-03-23 15:23 67.81609 119.68283 34553 ft 470 kts 62°
2026-03-23 15:23 67.84580 119.83554 34575 ft 470 kts 62°
2026-03-23 15:24 67.87560 119.98981 34558 ft 470 kts 63°
2026-03-23 15:24 67.90529 120.14463 34552 ft 471 kts 63°
2026-03-23 15:25 67.93483 120.29985 34553 ft 471 kts 63°
2026-03-23 15:25 67.96424 120.45548 34559 ft 471 kts 63°
2026-03-23 15:26 67.99331 120.61054 34562 ft 471 kts 63°
2026-03-23 15:27 68.03692 120.84533 34541 ft 471 kts 64°
2026-03-23 15:27 68.06582 121.00245 34558 ft 471 kts 64°
2026-03-23 15:28 68.09455 121.15985 34561 ft 471 kts 64°
2026-03-23 15:28 68.12293 121.31651 34569 ft 471 kts 64°
2026-03-23 15:29 68.16553 121.55392 34565 ft 470 kts 64°
2026-03-23 15:29 68.19371 121.71256 34568 ft 470 kts 65°
2026-03-23 15:30 68.22170 121.87136 34580 ft 470 kts 65°
2026-03-23 15:30 68.24937 122.02957 34576 ft 470 kts 65°
2026-03-23 15:31 68.27704 122.18900 34580 ft 469 kts 65°
2026-03-23 15:31 68.30454 122.34874 34579 ft 469 kts 65°
2026-03-23 15:32 68.33187 122.50878 34570 ft 468 kts 66°
2026-03-23 15:32 68.35899 122.66889 34579 ft 468 kts 66°
2026-03-23 15:33 68.38575 122.82811 34602 ft 467 kts 66°
2026-03-23 15:33 68.41254 122.98880 34596 ft 467 kts 66°
2026-03-23 15:34 68.43916 123.14985 34594 ft 467 kts 67°
2026-03-23 15:34 68.46564 123.31113 34597 ft 467 kts 67°
2026-03-23 15:35 68.49196 123.47286 34596 ft 467 kts 67°
2026-03-23 15:35 68.51788 123.63385 34600 ft 467 kts 67°
2026-03-23 15:36 68.54382 123.79627 34598 ft 467 kts 67°
2026-03-23 15:36 68.56963 123.95912 34603 ft 467 kts 68°
2026-03-23 15:37 68.59529 124.12237 34610 ft 467 kts 68°
2026-03-23 15:37 68.62062 124.28486 34609 ft 466 kts 68°
2026-03-23 15:38 68.64593 124.44865 34613 ft 467 kts 68°
2026-03-23 15:38 68.67109 124.61285 34624 ft 467 kts 68°
2026-03-23 15:39 68.69610 124.77747 34636 ft 467 kts 68°
2026-03-23 15:39 68.72078 124.94137 34655 ft 467 kts 69°
2026-03-23 15:40 68.74552 125.10692 34635 ft 467 kts 69°
2026-03-23 15:40 68.77005 125.27259 34667 ft 467 kts 69°
2026-03-23 15:41 68.79439 125.43855 34667 ft 466 kts 70°
2026-03-23 15:41 68.81855 125.60473 34669 ft 466 kts 70°
2026-03-23 15:42 68.84238 125.77003 34675 ft 466 kts 70°
2026-03-23 15:42 68.86620 125.93673 34663 ft 465 kts 70°
2026-03-23 15:43 68.88984 126.10363 34702 ft 465 kts 71°
2026-03-23 15:43 68.91332 126.27099 34696 ft 465 kts 71°
2026-03-23 15:44 68.93650 126.43767 34701 ft 466 kts 71°
2026-03-23 15:44 68.95967 126.60587 34745 ft 466 kts 71°
2026-03-23 15:45 68.98272 126.77465 34743 ft 466 kts 71°
2026-03-23 15:45 69.00559 126.94376 34749 ft 467 kts 71°
2026-03-23 15:46 69.02835 127.11365 34752 ft 468 kts 72°
2026-03-23 15:46 69.05080 127.28286 34758 ft 468 kts 72°
2026-03-23 15:47 69.07325 127.45364 34784 ft 468 kts 72°
2026-03-23 15:47 69.09554 127.62479 34786 ft 468 kts 72°
2026-03-23 15:48 69.11763 127.79618 34780 ft 467 kts 72°
2026-03-23 15:48 69.13953 127.96766 34792 ft 467 kts 73°
2026-03-23 15:49 69.16109 128.13820 34798 ft 466 kts 73°
2026-03-23 15:49 69.18260 128.31003 34821 ft 466 kts 73°
2026-03-23 15:50 69.20394 128.48217 34821 ft 466 kts 73°
2026-03-23 15:50 69.22494 128.65331 34831 ft 465 kts 74°
2026-03-23 15:51 69.24590 128.82583 34886 ft 465 kts 74°
2026-03-23 15:51 69.26672 128.99865 34877 ft 465 kts 74°
2026-03-23 15:52 69.28846 129.17098 34882 ft 466 kts 72°
2026-03-23 15:52 69.31137 129.34219 34893 ft 465 kts 72°
2026-03-23 15:53 69.33393 129.51242 34890 ft 465 kts 73°
2026-03-23 15:53 69.35622 129.68404 34920 ft 464 kts 73°
2026-03-23 15:54 69.37825 129.85624 34912 ft 465 kts 73°
2026-03-23 15:54 69.40013 130.02925 34914 ft 466 kts 73°
2026-03-23 15:55 69.42176 130.20177 34917 ft 467 kts 74°
2026-03-23 15:55 69.44341 130.37625 34899 ft 469 kts 74°
2026-03-23 15:56 69.46494 130.55144 34915 ft 469 kts 74°
2026-03-23 15:56 69.48634 130.72738 34909 ft 470 kts 74°
2026-03-23 15:57 69.50744 130.90263 34902 ft 471 kts 75°
2026-03-23 15:57 69.52853 131.07965 34908 ft 471 kts 75°
2026-03-23 15:58 69.54944 131.25707 34893 ft 471 kts 75°
2026-03-23 15:58 69.57017 131.43473 34885 ft 470 kts 75°
2026-03-23 15:59 69.59068 131.61243 35006 ft 470 kts 75°
2026-03-23 15:59 69.60072 131.70011 35185 ft 469 kts 76°
2026-03-23 15:59 69.61084 131.78895 35365 ft 468 kts 76°
2026-03-23 16:00 69.62090 131.87781 35512 ft 469 kts 76°
2026-03-23 16:00 69.63093 131.96685 35624 ft 469 kts 76°
2026-03-23 16:00 69.64092 132.05602 35766 ft 469 kts 76°
2026-03-23 16:00 69.65087 132.14531 35915 ft 469 kts 76°
2026-03-23 16:01 69.66078 132.23475 36036 ft 470 kts 76°
2026-03-23 16:01 69.67065 132.32433 36160 ft 470 kts 76°
2026-03-23 16:01 69.68035 132.41283 36319 ft 470 kts 76°
2026-03-23 16:01 69.69011 132.50241 36467 ft 469 kts 77°
2026-03-23 16:02 69.69984 132.59210 36618 ft 469 kts 77°
2026-03-23 16:02 69.70951 132.68182 36740 ft 469 kts 77°
2026-03-23 16:02 69.71912 132.77155 36851 ft 469 kts 77°
2026-03-23 16:02 69.72871 132.86156 36868 ft 471 kts 77°
2026-03-23 16:03 69.74782 133.04249 36877 ft 471 kts 77°
2026-03-23 16:03 69.76670 133.22322 36875 ft 469 kts 77°
2026-03-23 16:04 69.78521 133.40253 36877 ft 468 kts 77°
2026-03-23 16:04 69.80362 133.58300 36859 ft 466 kts 78°
2026-03-23 16:05 69.82176 133.76287 36892 ft 465 kts 78°
2026-03-23 16:05 69.83969 133.94281 36896 ft 465 kts 78°
2026-03-23 16:06 69.85731 134.12187 36909 ft 465 kts 78°
2026-03-23 16:06 69.87492 134.30288 36905 ft 466 kts 79°
2026-03-23 16:07 69.89236 134.48435 36919 ft 467 kts 79°
2026-03-23 16:07 69.90965 134.66657 36912 ft 468 kts 79°
2026-03-23 16:08 69.92668 134.84815 36912 ft 469 kts 79°
2026-03-23 16:08 69.94364 135.03144 36920 ft 469 kts 79°
2026-03-23 16:09 69.96046 135.21536 36914 ft 470 kts 79°
2026-03-23 16:09 69.97708 135.39960 36922 ft 469 kts 80°
2026-03-23 16:10 69.99352 135.58394 36918 ft 469 kts 80°
2026-03-23 16:10 70.00954 135.76739 36922 ft 469 kts 81°
2026-03-23 16:11 70.02510 135.95224 36910 ft 468 kts 81°
2026-03-23 16:11 70.04045 136.13738 36929 ft 468 kts 81°
2026-03-23 16:12 70.05563 136.32246 36922 ft 468 kts 81°
2026-03-23 16:12 70.07065 136.50781 36929 ft 467 kts 81°
2026-03-23 16:13 70.08537 136.69201 36924 ft 467 kts 82°
2026-03-23 16:13 70.09999 136.87777 36924 ft 467 kts 82°
2026-03-23 16:14 70.11443 137.06386 36901 ft 467 kts 82°
2026-03-23 16:14 70.12857 137.24882 36915 ft 467 kts 82°
2026-03-23 16:15 70.14260 137.43513 36936 ft 466 kts 83°
2026-03-23 16:15 70.15643 137.62154 36906 ft 466 kts 83°
2026-03-23 16:16 70.17005 137.80792 36926 ft 466 kts 83°
2026-03-23 16:16 70.18350 137.99461 36943 ft 465 kts 83°
2026-03-23 16:17 70.19686 138.18011 36934 ft 466 kts 83°
2026-03-23 16:17 70.21033 138.36716 36935 ft 466 kts 83°
2026-03-23 16:18 70.22362 138.55445 36946 ft 466 kts 84°
2026-03-23 16:18 70.23668 138.74200 36944 ft 466 kts 84°
2026-03-23 16:19 70.24946 138.92876 36949 ft 467 kts 84°
2026-03-23 16:19 70.26214 139.11712 36941 ft 467 kts 84°
2026-03-23 16:20 70.27462 139.30567 36950 ft 467 kts 84°
2026-03-23 16:20 70.28690 139.49440 36965 ft 466 kts 85°
2026-03-23 16:21 70.29896 139.68303 36955 ft 466 kts 85°
2026-03-23 16:21 70.31073 139.87039 36943 ft 465 kts 85°
2026-03-23 16:22 70.32237 140.05895 36951 ft 465 kts 85°
2026-03-23 16:22 70.33380 140.24756 36975 ft 464 kts 86°
2026-03-23 16:23 70.34502 140.43628 36983 ft 464 kts 86°
2026-03-23 16:23 70.35606 140.62528 36957 ft 464 kts 86°
2026-03-23 16:24 70.36681 140.81311 36980 ft 464 kts 87°
2026-03-23 16:24 70.37746 141.00269 36983 ft 465 kts 87°
2026-03-23 16:25 70.38793 141.19284 36995 ft 466 kts 87°
2026-03-23 16:25 70.39822 141.38364 36994 ft 467 kts 87°
2026-03-23 16:26 70.40827 141.57376 36994 ft 468 kts 88°
2026-03-23 16:27 70.42310 141.86186 36970 ft 470 kts 88°
2026-03-23 16:27 70.43276 142.05446 36978 ft 469 kts 88°
2026-03-23 16:28 70.44220 142.24711 36993 ft 470 kts 88°
2026-03-23 16:28 70.45137 142.43875 37008 ft 470 kts 89°
2026-03-23 16:29 70.46042 142.63211 37007 ft 470 kts 89°
2026-03-23 16:29 70.46927 142.82584 37008 ft 471 kts 89°
2026-03-23 16:30 70.47791 143.01964 36988 ft 470 kts 89°
2026-03-23 16:30 70.48628 143.21214 37017 ft 470 kts 90°
2026-03-23 16:31 70.49450 143.40598 37022 ft 469 kts 90°
2026-03-23 16:31 70.50250 143.59983 37024 ft 469 kts 90°
2026-03-23 16:32 70.51029 143.79378 37027 ft 469 kts 90°
2026-03-23 16:32 70.51782 143.98656 37028 ft 469 kts 90°
2026-03-23 16:33 70.52520 144.18076 36976 ft 469 kts 90°
2026-03-23 16:33 70.53237 144.37462 37019 ft 467 kts 91°
2026-03-23 16:34 70.53931 144.56846 37036 ft 468 kts 91°
2026-03-23 16:34 70.54600 144.76147 37027 ft 469 kts 91°
2026-03-23 16:35 70.55255 144.95629 37042 ft 470 kts 91°
2026-03-23 16:35 70.55891 145.15155 37045 ft 471 kts 91°
2026-03-23 16:36 70.56507 145.34720 37043 ft 471 kts 91°
2026-03-23 16:36 70.57103 145.54332 37012 ft 471 kts 92°
2026-03-23 16:37 70.57674 145.73802 37031 ft 471 kts 92°
2026-03-23 16:37 70.58228 145.93433 37041 ft 471 kts 92°
2026-03-23 16:38 70.58760 146.13055 37041 ft 471 kts 92°
2026-03-23 16:38 70.59271 146.32691 37043 ft 471 kts 92°
2026-03-23 16:39 70.59758 146.52167 37041 ft 469 kts 93°
2026-03-23 16:39 70.60225 146.71724 37040 ft 469 kts 93°
2026-03-23 16:40 70.60670 146.91262 37043 ft 468 kts 94°
2026-03-23 16:40 70.61095 147.10809 37045 ft 467 kts 94°
2026-03-23 16:41 70.61498 147.30320 37042 ft 467 kts 94°
2026-03-23 16:41 70.61877 147.49700 37045 ft 467 kts 94°
2026-03-23 16:42 70.62239 147.69201 37048 ft 466 kts 94°
2026-03-23 16:42 70.62582 147.88698 37045 ft 466 kts 95°
2026-03-23 16:43 70.63008 148.08204 37060 ft 467 kts 93°
2026-03-23 16:43 70.63513 148.27609 37054 ft 468 kts 93°
2026-03-23 16:44 70.64000 148.47155 37053 ft 468 kts 94°
2026-03-23 16:44 70.64450 148.66734 37009 ft 468 kts 94°
2026-03-23 16:45 70.64871 148.86301 37048 ft 468 kts 94°
2026-03-23 16:45 70.65266 149.05772 37075 ft 469 kts 94°
2026-03-23 16:46 70.65645 149.25406 37055 ft 469 kts 95°
2026-03-23 16:46 70.66004 149.45087 37069 ft 470 kts 95°
2026-03-23 16:47 70.66342 149.64776 37072 ft 470 kts 95°
2026-03-23 16:47 70.66659 149.84480 37078 ft 470 kts 95°
2026-03-23 16:48 70.66953 150.04085 37076 ft 471 kts 95°
2026-03-23 16:48 70.67228 150.23835 37076 ft 471 kts 96°
2026-03-23 16:49 70.67482 150.43577 37040 ft 471 kts 96°
2026-03-23 16:49 70.67715 150.63285 37069 ft 470 kts 96°
2026-03-23 16:50 70.67925 150.82982 37075 ft 469 kts 96°
2026-03-23 16:50 70.68113 151.02548 37022 ft 469 kts 97°
2026-03-23 16:51 70.68282 151.22222 37065 ft 468 kts 97°
2026-03-23 16:51 70.68428 151.41862 37077 ft 468 kts 97°
2026-03-23 16:52 70.68554 151.61491 37029 ft 467 kts 97°
2026-03-23 16:52 70.68658 151.80959 37071 ft 466 kts 97°
2026-03-23 16:53 70.68742 152.00525 37082 ft 466 kts 98°
2026-03-23 16:53 70.68804 152.20105 37079 ft 466 kts 98°
2026-03-23 16:54 70.68846 152.39694 37077 ft 466 kts 98°
2026-03-23 16:54 70.68867 152.59161 37081 ft 467 kts 98°
2026-03-23 16:55 70.68867 152.78764 37083 ft 467 kts 98°
2026-03-23 16:55 70.68847 152.98357 37081 ft 466 kts 98°
2026-03-23 16:56 70.68806 153.17947 37070 ft 466 kts 99°
2026-03-23 16:56 70.68744 153.37397 37078 ft 466 kts 99°
2026-03-23 16:57 70.68661 153.56956 37074 ft 465 kts 99°
2026-03-23 16:57 70.68558 153.76493 37075 ft 465 kts 99°
2026-03-23 16:58 70.68433 153.96025 37073 ft 465 kts 99°
2026-03-23 16:58 70.68289 154.15407 37060 ft 464 kts 99°
2026-03-23 16:59 70.68124 154.34881 37071 ft 464 kts 99°
2026-03-23 16:59 70.67937 154.54371 37079 ft 464 kts 100°
2026-03-23 17:00 70.67730 154.73842 37071 ft 464 kts 100°
2026-03-23 17:00 70.67504 154.93198 37077 ft 464 kts 100°
2026-03-23 17:01 70.67256 155.12684 37074 ft 465 kts 100°
2026-03-23 17:01 70.66987 155.32176 37036 ft 465 kts 100°
2026-03-23 17:02 70.66699 155.51624 37071 ft 464 kts 101°
2026-03-23 17:02 70.66390 155.71077 37082 ft 464 kts 101°
2026-03-23 17:03 70.66066 155.90382 37075 ft 463 kts 101°
2026-03-23 17:03 70.65685 156.09777 37074 ft 463 kts 101°
2026-03-23 17:04 70.65246 156.29141 37081 ft 463 kts 102°
2026-03-23 17:04 70.64789 156.48494 37085 ft 463 kts 102°
2026-03-23 17:05 70.64321 156.67710 37085 ft 463 kts 102°
2026-03-23 17:05 70.63832 156.87057 37085 ft 463 kts 102°
2026-03-23 17:06 70.63323 157.06392 37083 ft 463 kts 102°
2026-03-23 17:06 70.62793 157.25735 37088 ft 463 kts 102°
2026-03-23 17:07 70.62247 157.44946 37092 ft 464 kts 102°
2026-03-23 17:07 70.61675 157.64285 37085 ft 464 kts 103°
2026-03-23 17:08 70.61084 157.83621 37065 ft 464 kts 103°
2026-03-23 17:08 70.60473 158.02926 37075 ft 463 kts 103°
2026-03-23 17:09 70.59841 158.22205 37089 ft 463 kts 103°
2026-03-23 17:09 70.59193 158.41367 37090 ft 464 kts 103°
2026-03-23 17:10 70.58520 158.60652 37086 ft 464 kts 103°
2026-03-23 17:10 70.57826 158.79932 37088 ft 464 kts 103°
2026-03-23 17:11 70.57112 158.99195 37093 ft 464 kts 104°
2026-03-23 17:11 70.56383 159.18321 37091 ft 464 kts 104°
2026-03-23 17:12 70.55630 159.37543 37102 ft 464 kts 104°
2026-03-23 17:12 70.54856 159.56747 37098 ft 463 kts 104°
2026-03-23 17:13 70.54063 159.75920 37101 ft 463 kts 104°
2026-03-23 17:13 70.53251 159.95061 37104 ft 462 kts 104°
2026-03-23 17:14 70.52425 160.14035 37095 ft 462 kts 105°
2026-03-23 17:14 70.51579 160.33090 37099 ft 461 kts 104°
2026-03-23 17:15 70.50725 160.52075 37104 ft 460 kts 104°
2026-03-23 17:15 70.49907 160.71073 37114 ft 460 kts 104°
2026-03-23 17:16 70.49087 160.89918 37116 ft 460 kts 104°
2026-03-23 17:16 70.48237 161.08852 37111 ft 459 kts 105°
2026-03-23 17:17 70.47364 161.27772 37117 ft 459 kts 105°
2026-03-23 17:17 70.46471 161.46654 37107 ft 458 kts 104°
2026-03-23 17:18 70.45566 161.65377 37113 ft 458 kts 105°
2026-03-23 17:18 70.44637 161.84204 37117 ft 459 kts 105°
2026-03-23 17:19 70.43689 162.03039 37126 ft 459 kts 105°
2026-03-23 17:19 70.42722 162.21869 37125 ft 459 kts 105°
2026-03-23 17:20 70.41760 162.40574 37124 ft 460 kts 105°
2026-03-23 17:20 70.40777 162.59421 37099 ft 460 kts 105°
2026-03-23 17:21 70.39776 162.78227 37105 ft 459 kts 105°
2026-03-23 17:21 70.38755 162.96996 37134 ft 459 kts 105°
2026-03-23 17:22 70.37715 163.15737 37131 ft 459 kts 105°
2026-03-23 17:22 70.36662 163.34328 37129 ft 459 kts 105°
2026-03-23 17:23 70.35587 163.52980 37120 ft 455 kts 105°
2026-03-23 17:23 70.35048 163.62216 36780 ft 451 kts 106°
2026-03-23 17:23 70.34516 163.71288 36489 ft 443 kts 106°
2026-03-23 17:23 70.33984 163.80248 36086 ft 438 kts 106°
2026-03-23 17:24 70.33454 163.89096 35730 ft 433 kts 106°
2026-03-23 17:24 70.32922 163.97861 35351 ft 430 kts 106°
2026-03-23 17:24 70.32390 164.06548 34977 ft 426 kts 107°
2026-03-23 17:24 70.31865 164.15052 34605 ft 423 kts 107°
2026-03-23 17:25 70.31333 164.23605 34231 ft 420 kts 107°
2026-03-23 17:25 70.30800 164.32094 33812 ft 417 kts 107°
2026-03-23 17:25 70.30267 164.40530 33387 ft 414 kts 107°
2026-03-23 17:25 70.29915 164.46059 33159 ft 412 kts 107°
2026-03-23 17:26 70.29204 164.57164 32667 ft 408 kts 108°
2026-03-23 17:26 70.28673 164.65379 32303 ft 405 kts 108°
2026-03-23 17:26 70.28150 164.73419 31951 ft 402 kts 108°
2026-03-23 17:27 70.27087 164.89551 31250 ft 397 kts 108°
2026-03-23 17:27 70.26586 164.97086 30897 ft 395 kts 108°
2026-03-23 17:27 70.26053 165.05020 30521 ft 392 kts 108°
2026-03-23 17:27 70.25522 165.12895 30194 ft 390 kts 108°
2026-03-23 17:28 70.24989 165.20730 29809 ft 387 kts 108°
2026-03-23 17:28 70.24638 165.25876 29573 ft 384 kts 108°
2026-03-23 17:28 70.23930 165.36174 29092 ft 380 kts 108°
2026-03-23 17:28 70.23403 165.43785 28766 ft 377 kts 108°
2026-03-23 17:29 70.22883 165.51236 28409 ft 374 kts 108°
2026-03-23 17:29 70.22357 165.58717 28066 ft 371 kts 108°
2026-03-23 17:29 70.21830 165.66165 27711 ft 369 kts 108°
2026-03-23 17:29 70.21304 165.73553 27362 ft 367 kts 108°
2026-03-23 17:30 70.20779 165.80882 27023 ft 364 kts 109°
2026-03-23 17:30 70.20254 165.88173 26687 ft 362 kts 109°
2026-03-23 17:30 70.19907 165.92971 26464 ft 361 kts 109°
2026-03-23 17:30 70.19381 166.00189 26126 ft 359 kts 109°
2026-03-23 17:31 70.18856 166.07364 25796 ft 357 kts 109°
2026-03-23 17:31 70.18158 166.16824 25328 ft 355 kts 109°
2026-03-23 17:31 70.17631 166.23922 25013 ft 354 kts 109°
2026-03-23 17:31 70.17104 166.30982 24687 ft 353 kts 109°
2026-03-23 17:32 70.16575 166.38028 24363 ft 352 kts 109°
2026-03-23 17:32 70.16045 166.45048 24037 ft 351 kts 109°
2026-03-23 17:32 70.15693 166.49685 23826 ft 350 kts 109°
2026-03-23 17:32 70.15160 166.56679 23433 ft 350 kts 109°
2026-03-23 17:33 70.14626 166.63644 23068 ft 349 kts 109°
2026-03-23 17:33 70.14091 166.70586 22720 ft 347 kts 109°
2026-03-23 17:33 70.13557 166.77487 22385 ft 345 kts 109°
2026-03-23 17:33 70.12850 166.86560 21950 ft 343 kts 109°
2026-03-23 17:34 70.12317 166.93360 21627 ft 341 kts 109°
2026-03-23 17:34 70.11783 167.00131 21300 ft 339 kts 109°
2026-03-23 17:34 70.11429 167.04595 21089 ft 338 kts 109°
2026-03-23 17:34 70.10898 167.11301 20771 ft 337 kts 109°
2026-03-23 17:35 70.10364 167.17981 20452 ft 335 kts 110°
2026-03-23 17:35 70.09828 167.24637 20129 ft 334 kts 109°
2026-03-23 17:35 70.09290 167.31259 19793 ft 334 kts 110°
2026-03-23 17:35 70.08742 167.37775 19399 ft 334 kts 109°
2026-03-23 17:36 70.08171 167.44480 19095 ft 333 kts 110°
2026-03-23 17:36 70.07607 167.51065 18780 ft 332 kts 110°
2026-03-23 17:36 70.07050 167.57536 18469 ft 332 kts 110°
2026-03-23 17:36 70.06486 167.64081 18112 ft 331 kts 109°
2026-03-23 17:37 70.05921 167.70607 17765 ft 330 kts 109°
2026-03-23 17:37 70.05354 167.77132 17230 ft 335 kts 109°
2026-03-23 17:37 70.04773 167.83763 16838 ft 335 kts 109°
2026-03-23 17:37 70.04195 167.90364 16481 ft 334 kts 109°
2026-03-23 17:38 70.03616 167.96948 16147 ft 333 kts 109°
2026-03-23 17:38 70.03039 168.03488 15822 ft 331 kts 109°
2026-03-23 17:38 70.02461 168.09998 15506 ft 330 kts 109°
2026-03-23 17:38 70.01889 168.16416 15184 ft 322 kts 109°
2026-03-23 17:39 70.01338 168.22579 14908 ft 315 kts 109°
2026-03-23 17:39 70.00782 168.28750 14608 ft 314 kts 109°
2026-03-23 17:39 70.00223 168.34917 14309 ft 313 kts 109°
2026-03-23 17:39 69.99665 168.41057 13995 ft 313 kts 109°
2026-03-23 17:40 69.99107 168.47191 13664 ft 312 kts 109°
2026-03-23 17:40 69.98549 168.53289 13346 ft 311 kts 109°
2026-03-23 17:40 69.97988 168.59369 13021 ft 309 kts 109°
2026-03-23 17:40 69.97445 168.65424 12761 ft 308 kts 107°
2026-03-23 17:41 69.96981 168.71416 12480 ft 306 kts 106°
2026-03-23 17:41 69.96536 168.77467 12185 ft 305 kts 105°
2026-03-23 17:41 69.96092 168.83497 11888 ft 304 kts 105°
2026-03-23 17:41 69.95645 168.89508 11593 ft 303 kts 105°
2026-03-23 17:42 69.95194 168.95485 11299 ft 301 kts 105°
2026-03-23 17:42 69.94741 169.01436 11004 ft 300 kts 105°
2026-03-23 17:42 69.94285 169.07361 10716 ft 299 kts 105°
2026-03-23 17:42 69.93829 169.13262 10427 ft 298 kts 105°
2026-03-23 17:43 69.93371 169.19150 10137 ft 298 kts 105°
2026-03-23 17:43 69.92921 169.24925 9912 ft 294 kts 105°
2026-03-23 17:43 69.92472 169.30668 9681 ft 290 kts 105°
2026-03-23 17:43 69.92021 169.36376 9383 ft 289 kts 105°
2026-03-23 17:44 69.91570 169.42050 9103 ft 287 kts 105°
2026-03-23 17:44 69.91182 169.47741 8804 ft 288 kts 95°
2026-03-23 17:44 69.91474 169.53476 8503 ft 286 kts 75°
2026-03-23 17:44 69.92017 169.59005 8129 ft 282 kts 75°
2026-03-23 17:45 69.92545 169.64405 7783 ft 277 kts 76°
2026-03-23 17:45 69.93065 169.69787 7433 ft 272 kts 76°
2026-03-23 17:45 69.93561 169.74981 7103 ft 269 kts 76°
2026-03-23 17:45 69.94055 169.80219 6786 ft 267 kts 76°
2026-03-23 17:46 69.94543 169.85424 6447 ft 265 kts 76°
2026-03-23 17:46 69.95025 169.90598 6092 ft 264 kts 76°
2026-03-23 17:46 69.95501 169.95734 5750 ft 261 kts 76°
2026-03-23 17:46 69.95978 170.00886 5457 ft 265 kts 77°
2026-03-23 17:47 69.96456 170.06100 5131 ft 267 kts 77°
2026-03-23 17:47 69.96936 170.11359 4791 ft 269 kts 77°
2026-03-23 17:47 69.97412 170.16583 4450 ft 270 kts 77°
2026-03-23 17:47 69.97862 170.21869 4159 ft 265 kts 78°
2026-03-23 17:48 69.98281 170.27009 3883 ft 256 kts 78°
2026-03-23 17:48 69.98684 170.31982 3662 ft 248 kts 78°
2026-03-23 17:48 69.99068 170.36805 3414 ft 239 kts 82°
2026-03-23 17:48 69.98932 170.41416 3221 ft 221 kts 119°
2026-03-23 17:49 69.97914 170.44400 3061 ft 205 kts 153°
2026-03-23 17:49 69.96673 170.46286 2874 ft 198 kts 153°
2026-03-23 17:49 69.95446 170.47777 2676 ft 190 kts 161°
2026-03-23 17:49 69.94213 170.48877 2502 ft 181 kts 165°
2026-03-23 17:50 69.93024 170.49728 2334 ft 171 kts 166°
2026-03-23 17:50 69.91878 170.50510 2175 ft 169 kts 166°
2026-03-23 17:50 69.90749 170.51279 1969 ft 162 kts 166°
2026-03-23 17:50 69.89690 170.52002 1802 ft 150 kts 166°
2026-03-23 17:51 69.88692 170.52682 1573 ft 143 kts 166°
2026-03-23 17:51 69.87744 170.53323 1457 ft 138 kts 166°
2026-03-23 17:51 69.86807 170.53960 1252 ft 137 kts 166°
2026-03-23 17:51 69.85890 170.54589 1113 ft 137 kts 166°
2026-03-23 17:52 69.84958 170.55262 1035 ft 139 kts 165°
2026-03-23 17:52 69.84019 170.55895 954 ft 140 kts 166°
2026-03-23 17:52 69.83070 170.56536 770 ft 140 kts 166°
2026-03-23 17:52 69.82125 170.57175 578 ft 139 kts 165°
2026-03-23 17:53 69.81184 170.57791 382 ft 139 kts 165°
2026-03-23 17:53 69.80483 170.58248 247 ft 135 kts 166°
2026-03-23 17:53 69.79565 170.58855 83 ft 136 kts 165°
2026-03-23 17:53 69.78648 170.59457 40 ft 135 kts 168°
2026-03-23 17:54 69.77863 170.59969 24 ft 90 kts 166°
2026-03-23 17:54 69.77528 170.60201 24 ft 28 kts 166°
2026-03-23 17:54 69.77425 170.60272 24 ft 12 kts 170°
2026-03-23 17:54 69.77342 170.60297 24 ft 12 kts 173°
2026-03-23 17:55 69.77278 170.60320 27 ft 7 kts 172°
2026-03-23 17:55 69.77273 170.60406 28 ft 6 kts 38°
2026-03-23 17:55 69.77314 170.60385 25 ft 7 kts 337°
2026-03-23 17:55 69.77365 170.60328 25 ft 10 kts 341°
2026-03-23 17:56 69.77441 170.60259 23 ft 13 kts 340°
2026-03-23 17:56 69.77526 170.60192 22 ft 13 kts
2026-03-23 17:56 69.77604 170.60292 23 ft 11 kts 22°
2026-03-23 17:56 69.77663 170.60188 23 ft 10 kts 315°
2026-03-23 17:57 69.77722 170.60071 26 ft 10 kts 344°
2026-03-23 17:57 69.77797 170.60016 23 ft 11 kts 346°
2026-03-23 17:57 69.77874 170.59964 24 ft 11 kts 347°
2026-03-23 17:57 69.77948 170.59913 26 ft 11 kts 346°
2026-03-23 17:58 69.78019 170.59859 24 ft 11 kts 345°
2026-03-23 17:58 69.78089 170.59807 24 ft 10 kts 346°
2026-03-23 17:58 69.78157 170.59763 25 ft 10 kts 346°
2026-03-23 17:58 69.78223 170.59716 27 ft 10 kts 346°
2026-03-23 17:59 69.78294 170.59671 26 ft 12 kts 351°
2026-03-23 17:59 69.78374 170.59634 24 ft 11 kts 348°
2026-03-23 17:59 69.78451 170.59588 21 ft 12 kts 348°
2026-03-23 17:59 69.78534 170.59531 23 ft 12 kts 345°
2026-03-23 18:00 69.78613 170.59474 24 ft 12 kts 347°
2026-03-23 18:00 69.78693 170.59432 24 ft 11 kts 350°
2026-03-23 18:00 69.78770 170.59423 25 ft 11 kts 18°
2026-03-23 18:00 69.78819 170.59609 24 ft 13 kts 73°
2026-03-23 18:01 69.78841 170.59847 23 ft 10 kts 74°
2026-03-23 18:01 69.78852 170.59961 23 ft 6 kts 75°
2026-03-23 18:01 69.78870 170.60047 23 ft 5 kts 31°
2026-03-23 18:01 69.78901 170.60048 25 ft 5 kts 320°
2026-03-23 18:02 69.78901 170.59975 23 ft 3 kts 256°
2026-03-23 18:02 69.78899 170.59938 23 ft 0 kts 258°